#timestamp,LO_Frequency,Hit,StdDev 
1553680815.8,286046999.9,N
1553680835.6,286046998.6,N
1553680855.4,286047000.8,N
1553680875.3,286047001.1,N
1553680895.1,286047001.3,N
1553680915.9,286047004.3,Y
1553680935.7,286047001.6,P
1553680955.5,286047000.1,N
1553680975.4,286047004.1,P
1553680995.2,286047005.7,Y
1553681015.1,286047005.5,P
1553681016.0,286047005.5,N
1553681035.8,286047004.8,N
1553681055.6,286047007.1,Y
1553681075.5,286047006.0,P
1553681095.3,286047005.1,P
1553681115.1,286047006.3,P
1553681135.9,286047008.6,Y
1553681155.7,286047005.9,P
1553681175.6,286047005.8,P
1553681195.4,286047004.7,P
1553681215.2,286047005.2,Y
1553681235.1,286046998.5,P
1553681236.0,286046998.5,N
1553681255.8,286047000.7,N
1553681275.7,286047002.6,N
1553681295.5,286047003.5,N
1553681315.3,286047004.8,N
1553681335.2,286047006.1,N
1553681355.0,286047006.8,N
1553681355.9,286047006.8,N
1553681375.7,286047009.0,N
1553681395.6,286047007.2,N
1553681415.4,286047005.7,N
1553681435.3,286047003.7,N
1553681455.1,286047004.7,N
1553681475.8,286047004.7,N
1553681495.7,286047007.3,N
1553681515.5,286047007.4,N
1553681535.4,286047005.2,N
1553681555.2,286047006.0,N
1553681575.0,286047003.9,N
1553681575.9,286047003.9,N
1553681595.8,286047005.8,N
1553681615.6,286047004.6,N
1553681635.4,286047005.2,N
1553681655.3,286047005.6,N
1553681675.1,286047006.3,N
1553681695.9,286047004.6,N
1553681715.7,286047004.0,N
1553681735.5,286047002.1,N
1553681755.4,286047000.9,N
1553681775.2,286046997.9,N
1553681795.0,286046995.7,N
1553681796.0,286046995.7,N
1553681815.8,286046994.4,N
1553681835.6,286046993.0,N
1553681855.5,286046991.1,N
1553681875.3,286046991.2,N
1553681895.1,286046989.7,N
1553681915.9,286046987.5,N
1553681935.7,286046985.5,N
1553681955.6,286046986.8,N
1553681975.4,286046984.4,N
1553681995.2,286046982.1,N
1553682015.1,286046984.4,N
1553682016.0,286046984.4,N
1553682035.8,286046986.5,N
1553682055.6,286046985.3,N
1553682075.5,286046987.1,N
1553682095.3,286046989.1,N
1553682115.2,286046990.2,N
1553682135.9,286046990.6,N
1553682155.7,286046990.2,N
1553682175.6,286046995.3,N
1553682195.4,286046997.2,N
1553682215.2,286046996.6,N
1553682235.1,286046997.8,N
1553682236.0,286046997.8,N
1553682255.8,286046998.7,N
1553682275.7,286046994.9,N
1553682295.5,286046997.6,N
1553682315.3,286046995.2,N
1553682335.2,286046995.1,N
1553682355.0,286046997.8,N
1553682355.9,286046997.8,N
1553682375.8,286046997.7,N
1553682395.6,286046997.0,N
1553682415.4,286046999.2,N
1553682435.3,286046999.4,N
1553682455.1,286046998.3,N
1553682475.8,286047000.8,N
1553682495.7,286047001.2,N
1553682515.5,286047000.8,N
1553682535.4,286046998.2,N
1553682555.2,286047000.4,N
1553682575.0,286047000.3,N
1553682575.9,286047000.3,N
1553682595.8,286046999.8,N
1553682615.6,286047002.6,N
1553682635.4,286047001.6,N
1553682655.3,286047001.7,N
1553682675.1,286047001.3,N
1553682695.9,286047003.9,N
1553682715.7,286047003.5,N
1553682735.5,286047003.4,N
1553682755.4,286047003.4,N
1553682775.2,286047005.7,N
1553682795.0,286047005.7,N
1553682795.9,286047005.7,N
1553682815.8,286047006.0,N
1553682835.6,286047005.7,N
1553682855.5,286047007.2,N
1553682875.3,286047006.5,N
1553682895.1,286047006.8,N
1553682915.9,286047004.6,N
1553682935.7,286047003.0,N
1553682955.4,286047004.9,N
1553682975.3,286047006.5,N
1553682995.1,286047006.4,N
1553682996.0,286047006.4,N
1553683015.8,286047008.5,Y
1553683035.7,286047003.3,P
1553683055.5,286047003.3,P
1553683075.3,286047001.6,P
1553683095.2,286046999.7,N
1553683115.0,286046998.7,N
1553683115.9,286046998.7,N
1553683135.8,286047001.2,N
1553683155.6,286047001.1,N
1553683175.4,286047000.6,N
1553683195.3,286047000.3,N
1553683215.1,286047000.0,N
1553683235.9,286047002.2,N
1553683255.7,286047001.6,N
1553683275.5,286047001.3,N
1553683295.4,286047007.1,Y
1553683315.2,286047006.8,P
1553683335.0,286047010.4,P
1553683335.9,286047010.4,N
1553683355.8,286047010.0,N
1553683375.6,286047010.1,N
1553683395.5,286047008.0,N
1553683415.3,286047006.5,N
1553683435.1,286047006.8,N
1553683455.9,286047007.0,N
1553683475.7,286047005.9,N
1553683495.5,286047003.0,N
1553683515.4,286047003.7,N
1553683535.2,286047007.4,N
1553683555.1,286047007.3,N
1553683556.0,286047007.3,N
1553683575.8,286047006.1,N
1553683595.7,286047010.4,Y
1553683615.5,286047002.5,P
1553683635.3,286047002.6,N
1553683655.2,286047000.2,N
1553683675.0,286047002.8,N
1553683675.9,286047002.8,N
1553683695.7,286047004.3,N
1553683715.6,286047003.3,N
1553683735.4,286047003.3,N
1553683755.3,286047004.8,N
1553683775.1,286047007.4,Y
1553683795.8,286047005.5,P
1553683815.7,286047003.5,P
1553683835.5,286047003.9,P
1553683855.4,286047002.2,N
1553683875.2,286047001.5,N
1553683895.0,286047001.7,N
1553683895.9,286047001.7,N
1553683915.8,286047004.1,Y
1553683935.6,286046999.6,P
1553683955.4,286046997.7,N
1553683975.3,286046996.0,N
1553683995.1,286046992.3,Y
1553684015.9,286046992.8,P
1553684035.7,286046989.2,P
1553684055.5,286046991.2,N
1553684075.4,286046991.2,N
1553684095.2,286046991.1,N
1553684115.1,286046990.4,Y
1553684116.0,286046990.4,P
1553684135.8,286047001.6,N
1553684155.6,286047000.1,N
1553684175.5,286047000.4,N
1553684195.3,286046999.9,N
1553684215.2,286047004.2,N
1553684235.9,286047001.3,N
1553684255.7,286047001.6,N
1553684275.6,286047001.6,N
1553684295.4,286047001.7,N
1553684315.2,286047006.9,N
1553684335.1,286047007.4,N
1553684336.0,286047007.4,N
1553684355.8,286047005.6,N
1553684375.7,286047001.6,N
1553684395.5,286046999.7,N
